Weather History for St. Joseph, MO

Change the Weather History Date:

Wednesday, October 9, 2013

  Actual Average Record
Temperature  
Mean Temperature 60 °F 57 °F  
Max Temperature 78 °F 70 °F 88 °F (1938)
Min Temperature 42 °F 45 °F 25 °F (1964)
Degree Days  
Heating Degree Days 5 9  
Month to date heating degree days 48 68  
Since 1 July heating degree days 86 148  
Cooling Degree Days 0 1  
Month to date cooling degree days 25 14  
Year to date cooling degree days 1284 1213  
Growing Degree Days 11 (Base 50)    
Moisture  
Dew Point 47 °F    
Average Humidity 63    
Maximum Humidity 93    
Minimum Humidity 33    
Precipitation  
Precipitation 0.00 in 0.09 in 0.88 in (1929)
Month to date precipitation 1.48 0.81  
Year to date precipitation 24.70 30.53  
Sea Level Pressure  
Sea Level Pressure 30.04 in    
Wind  
Wind Speed 8 mph (SSE)    
Max Wind Speed 16 mph    
Max Gust Speed 22 mph    
Visibility 10 miles    
Events      
T = Trace of Precipitation, MM = Missing Value Source: NWS Daily Summary

Daily Weather History Graph

Daily Weather History Graph

Search for Another Location

Airport:

Trip Planner

Search our weather history database for the weather conditions in past years. The results will help you decide how hot, cold, wet, or windy it might be!

Date:

Astronomy

Oct. 09, 2013 Rise Set
Actual Time 7:24 AM CDT 6:48 PM CDT
Civil Twilight 6:56 AM CDT 7:15 PM CDT
Nautical Twilight 6:25 AM CDT 7:47 PM CDT
Astronomical Twilight 5:54 AM CDT 8:18 PM CDT
Moon 12:19 PM CDT (10/9) 10:24 PM CDT (10/9)
Length of Visible Light 12h 18m
Length of Day
11h 24m
Waxing Crescent, 25% of the Moon is Illuminated
Oct 9
Waxing Crescent
Oct 11
First Quarter
Oct 18
Full
Oct 26
Last Quarter
Nov 3
New

Hourly Weather History & Observations

Time (CDT) Temp. Windchill Dew Point Humidity Pressure Visibility Wind Dir Wind Speed Gust Speed Precip Events Conditions
12:53 AM 57.0 °F - 48.0 °F 72% 30.02 in 10.0 mi SSW 5.8 mph - N/A   Clear
1:53 AM 54.0 °F - 48.0 °F 80% 30.03 in 10.0 mi SSE 8.1 mph - N/A   Clear
2:53 AM 54.0 °F - 48.0 °F 80% 30.04 in 10.0 mi SSE 6.9 mph - N/A   Clear
3:53 AM 52.0 °F - 48.0 °F 86% 30.04 in 10.0 mi SE 3.5 mph - N/A   Clear
4:53 AM 51.1 °F - 46.9 °F 86% 30.04 in 10.0 mi SE 5.8 mph - N/A   Clear
5:53 AM 48.9 °F - 46.0 °F 90% 30.04 in 10.0 mi SE 4.6 mph - N/A   Clear
6:53 AM 45.0 °F 43.5 °F 42.1 °F 90% 30.06 in 10.0 mi SE 3.5 mph - N/A   Clear
7:53 AM 45.0 °F - 42.1 °F 90% 30.07 in 10.0 mi Calm Calm - N/A   Clear
8:53 AM 57.0 °F - 48.0 °F 72% 30.08 in 10.0 mi SSE 6.9 mph - N/A   Clear
9:53 AM 62.1 °F - 48.0 °F 60% 30.08 in 10.0 mi South 9.2 mph - N/A   Clear
10:53 AM 66.9 °F - 48.0 °F 51% 30.09 in 10.0 mi South 12.7 mph - N/A   Clear
11:53 AM 71.1 °F - 50.0 °F 47% 30.08 in 10.0 mi South 11.5 mph - N/A   Clear
12:53 PM 73.0 °F - 50.0 °F 44% 30.06 in 10.0 mi South 10.4 mph - N/A   Clear
1:53 PM 75.0 °F - 50.0 °F 41% 30.04 in 10.0 mi South 13.8 mph 18.4 mph N/A   Clear
2:53 PM 77.0 °F - 46.0 °F 33% 30.02 in 10.0 mi South 10.4 mph - N/A   Clear
3:53 PM 77.0 °F - 46.0 °F 33% 30.01 in 10.0 mi South 11.5 mph 19.6 mph N/A   Clear
4:53 PM 75.0 °F - 48.0 °F 38% 30.01 in 10.0 mi SE 12.7 mph - N/A   Clear
5:53 PM 73.0 °F - 48.0 °F 41% 30.01 in 10.0 mi SE 11.5 mph - N/A   Clear
6:53 PM 66.0 °F - 48.9 °F 54% 30.01 in 10.0 mi SE 6.9 mph - N/A   Clear
7:53 PM 62.1 °F - 50.0 °F 65% 30.02 in 10.0 mi SE 6.9 mph - N/A   Clear
8:53 PM 62.1 °F - 48.9 °F 62% 30.02 in 10.0 mi SE 8.1 mph - N/A   Clear
9:53 PM 62.1 °F - 46.9 °F 58% 30.03 in 10.0 mi SSE 8.1 mph - N/A   Clear
10:53 PM 62.1 °F - 46.0 °F 56% 30.03 in 10.0 mi South 9.2 mph - N/A   Clear
11:53 PM 57.0 °F - 46.0 °F 67% 30.03 in 10.0 mi Calm Calm - N/A   Clear